Starlink 34361

operational
NORAD ID: 64450 Int'l Des: 2025-130 Owner: SPXS Country: US Constellation: starlink
LEOCIRCULAR

Starlink 34361について

説明を読み込み中...

リアルタイム位置

3D地球を読み込み中...

次回通過

高度履歴

Altitude vs Time

uPlot chart will show altitude changes over time

軌道要素

1 64450U 25130N 25340.88426240 .00015449 00000-0 53240-3 0 9998
2 64450 53.1579 159.6464 0001037 79.6448 280.4670 15.30215182 27661
Epoch: Dec 6, 2025 • Age: 15 hours

現在のステータス

高度 490.4 km
速度 7.62 km/s
衛星直下点 -43.73°S, 154.92°W
打ち上げ日 Jun 18, 2025
運用期間 0.4 years
タイプ internet

技術仕様

分類 Payload
質量 575.00 kg
乾燥質量 530.00 kg
総質量 575.00 kg
長さ 0.30 m
直径 4.10 m
スパン 29.00 m
形状 Box + pan
製造者 SPXS
バスタイプ Starlink V2MO
フェーズステータス In Orbit
所有者/国 SPXS/US

大規模コンステレーション

Loading constellations...